FW3182 Weather Reports


Display with metric or nautical units.
time (UTC)temp
F
wind
direction
speed
MPH
gust
MPH
rain 1hr
in
rain 24hr
in
rain mn
in
humidity
%
barometer
mb
20260505082204 60 271 5.0 10.0 0.16 0.16 0.16 96 1004.0
20260505081704 60 268 5.0 12.0 0.15 0.15 0.15 95 1004.1
20260505081203 60 269 2.0 7.0 0.13 0.13 0.13 94 1004.2
20260505080703 60 248 4.0 10.0 0.11 0.11 0.11 93 1004.5
20260505080204 61 272 3.0 8.0 0.08 0.08 0.08 91 1004.3
20260505075704 61 250 2.0 5.0 0.05 0.05 0.05 89 1004.2
20260505075203 61 264 2.0 6.0 0.03 0.03 0.03 87 1004.2
20260505074704 62 262 2.0 5.0 0.01 0.01 0.01 85 1003.8
20260505074204 62 244 2.0 3.0 0.00 0.00 0.00 83 1003.9
20260505073703 63 201 1.0 5.0 0.00 0.00 0.00 81 1003.9
20260505073203 63 158 2.0 6.0 0.00 0.00 0.00 80 1003.8
20260505072704 63 226 2.0 6.0 0.00 0.00 0.00 79 1003.8
20260505072204 63 141 1.0 3.0 0.00 0.00 0.00 79 1003.5
20260505071703 63 189 3.0 7.0 0.00 0.00 0.00 79 1003.7
20260505071204 63 166 2.0 3.0 0.00 0.00 0.00 79 1003.6
20260505070704 63 217 1.0 3.0 0.00 0.00 0.00 79 1003.6
20260505065704 63 225 0.0 3.0 0.00 0.00 0.00 78 1003.5
20260505065204 63 188 1.0 2.0 0.00 0.00 0.00 78 1003.6
20260505064703 63 189 0.0 2.0 0.00 0.00 0.00 78 1003.7
20260505064203 63 146 1.0 3.0 0.00 0.00 0.00 78 1003.8
20260505063704 63 187 1.0 3.0 0.00 0.00 0.00 78 1004.0
20260505063204 63 212 1.0 2.0 0.00 0.00 0.00 78 1004.0
20260505062704 63 189 0.0 2.0 0.00 0.00 0.00 78 1004.0
20260505062204 63 192 1.0 2.0 0.00 0.00 0.00 78 1004.0
20260505061704 63 182 1.0 3.0 0.00 0.00 0.00 78 1004.2
20260505061204 63 137 0.0 2.0 0.00 0.00 0.00 77 1004.2
20260505060204 63 198 1.0 3.0 0.00 0.00 0.00 77 1004.4
20260505055703 63 205 1.0 3.0 0.00 0.00 0.00 77 1004.3
20260505055204 63 182 1.0 3.0 0.00 0.00 0.00 77 1004.2
20260505054703 64 207 2.0 6.0 0.00 0.00 0.00 77 1004.1
20260505054204 64 190 1.0 3.0 0.00 0.00 0.00 77 1004.1
20260505053704 64 197 1.0 3.0 0.00 0.00 0.00 77 1003.9
20260505053203 64 145 1.0 3.0 0.00 0.00 0.00 77 1003.9
20260505052704 64 184 2.0 6.0 0.00 0.00 0.00 76 1003.9
20260505051704 64 154 1.0 3.0 0.00 0.00 0.00 76 1004.1
20260505051204 64 168 0.0 3.0 0.00 0.00 0.00 76 1004.2
20260505050204 64 197 2.0 3.0 0.00 0.00 0.00 76 1004.5
20260505041204 65 189 1.0 2.0 0.00 0.00 0.00 74 1004.9
20260505040704 65 117 1.0 2.0 0.00 0.00 0.00 74 1005.0
20260505040204 65 134 1.0 5.0 0.00 0.00 0.00 73 1005.0
20260505035703 65 174 1.0 3.0 0.00 0.00 0.00 73 1005.0
20260505035204 66 132 0.0 2.0 0.00 0.00 0.00 73 1005.1
20260505033704 66 150 1.0 3.0 0.00 0.00 0.00 72 1005.2
20260505033204 66 144 0.0 1.0 0.00 0.00 0.00 72 1005.2
20260505032704 66 202 0.0 2.0 0.00 0.00 0.00 71 1005.1
20260505032204 67 138 0.0 2.0 0.00 0.00 0.00 71 1005.2
20260505031704 67 118 1.0 2.0 0.00 0.00 0.00 70 1005.2
20260505030203 68 139 0.0 1.0 0.00 0.00 0.00 68 1005.2
20260505025704 68 159 1.0 2.0 0.00 0.00 0.00 67 1005.1
20260505025203 69 137 0.0 2.0 0.00 0.00 0.00 67 1005.2
20260505024703 69 140 1.0 3.0 0.00 0.00 0.00 66 1005.1
20260505023704 69 185 2.0 6.0 0.00 0.00 0.00 66 1005.1
20260505023203 69 198 3.0 5.0 0.00 0.00 0.00 66 1004.9
20260505021703 69 193 2.0 6.0 0.00 0.00 0.00 65 1004.7
20260505021204 69 214 2.0 8.0 0.00 0.00 0.00 65 1004.5
20260505020704 70 204 3.0 6.0 0.00 0.00 0.00 65 1004.4
20260505020204 70 186 3.0 6.0 0.00 0.00 0.00 65 1004.3
20260505015204 70 183 1.0 8.0 0.00 0.00 0.00 65 1004.1
20260505014703 70 178 2.0 6.0 0.00 0.00 0.00 64 1004.2
20260505014204 70 192 4.0 8.0 0.00 0.00 0.00 64 1004.0
20260505013704 71 163 2.0 3.0 0.00 0.00 0.00 64 1004.0
20260505013203 71 133 1.0 3.0 0.00 0.00 0.00 63 1003.8
20260505012203 71 176 3.0 9.0 0.00 0.00 0.00 63 1003.9
20260505011704 71 184 1.0 6.0 0.00 0.00 0.00 63 1003.9
20260505011204 71 202 1.0 2.0 0.00 0.00 0.00 62 1003.7
20260505010704 72 147 1.0 2.0 0.00 0.00 0.00 62 1003.7
20260505010203 72 136 0.0 2.0 0.00 0.00 0.00 62 1003.7
20260505005704 72 184 0.0 2.0 0.00 0.00 0.00 61 1003.6
20260505005204 72 167 1.0 3.0 0.00 0.00 0.00 61 1003.6
20260505004704 73 192 0.0 2.0 0.00 0.00 0.00 60 1003.3
20260505004204 73 167 1.0 3.0 0.00 0.00 0.00 60 1003.2
20260505003203 73 172 2.0 5.0 0.00 0.00 0.00 58 1003.1
20260505002704 74 191 2.0 6.0 0.00 0.00 0.00 58 1003.0
20260505002204 74 199 3.0 7.0 0.00 0.00 0.00 57 1002.9
20260505001704 74 186 4.0 7.0 0.00 0.00 0.00 57 1003.0
20260505000704 75 148 2.0 7.0 0.00 0.00 0.00 56 1003.0
20260504235703 76 185 4.0 9.0 0.00 0.00 0.00 54 1002.9
20260504234204 77 169 3.0 12.0 0.00 0.00 0.00 53 1002.9
20260504233704 77 170 6.0 10.0 0.00 0.00 0.00 52 1003.0
20260504233203 78 191 5.0 12.0 0.00 0.00 0.00 52 1003.0
20260504232704 78 217 5.0 14.0 0.00 0.00 0.00 51 1003.1
20260504232204 78 154 5.0 16.0 0.00 0.00 0.00 50 1003.0
20260504231704 78 160 5.0 12.0 0.00 0.00 0.00 50 1003.1
20260504231204 79 153 6.0 17.0 0.00 0.00 0.00 49 1003.0
20260504230703 79 177 3.0 13.0 0.00 0.00 0.00 50 1003.2
20260504230204 79 189 5.0 12.0 0.00 0.00 0.00 49 1003.2
20260504225703 79 175 5.0 15.0 0.00 0.00 0.00 48 1003.3
20260504224703 80 124 3.0 10.0 0.00 0.00 0.00 48 1003.2
20260504224204 79 180 5.0 12.0 0.00 0.00 0.00 47 1003.2
20260504223704 80 181 7.0 13.0 0.00 0.00 0.00 46 1003.3
20260504223204 80 197 5.0 12.0 0.00 0.00 0.00 46 1003.3
20260504222703 80 237 6.0 12.0 0.00 0.00 0.00 46 1003.4
20260504222204 80 210 5.0 12.0 0.00 0.00 0.00 46 1003.3
20260504221703 80 190 5.0 15.0 0.00 0.00 0.00 46 1003.4
20260504221204 81 198 6.0 14.0 0.00 0.00 0.00 45 1003.3
20260504220203 81 226 3.0 9.0 0.00 0.00 0.00 46 1003.3
20260504215703 80 215 5.0 14.0 0.00 0.00 0.00 46 1003.4
20260504214704 80 203 7.0 20.0 0.00 0.00 0.00 46 1003.4
20260504214203 80 183 5.0 14.0 0.00 0.00 0.00 46 1003.4
20260504213704 80 205 4.0 13.0 0.00 0.00 0.00 46 1003.5
20260504213204 80 200 9.0 18.0 0.00 0.00 0.00 46 1003.6
20260504212703 80 234 3.0 12.0 0.00 0.00 0.00 48 1003.6
20260504211703 80 236 7.0 15.0 0.00 0.00 0.00 47 1003.7
20260504211204 81 209 8.0 18.0 0.00 0.00 0.00 46 1003.8
20260504210704 81 209 5.0 13.0 0.00 0.00 0.00 47 1003.8
20260504210204 81 249 4.0 15.0 0.00 0.00 0.00 47 1003.7
20260504205704 80 225 5.0 12.0 0.00 0.00 0.00 48 1003.9
20260504205204 80 219 7.0 22.0 0.00 0.00 0.00 47 1004.0
20260504204704 80 203 10.0 20.0 0.00 0.00 0.00 47 1004.0
20260504203704 80 217 6.0 13.0 0.00 0.00 0.00 46 1004.2
20260504202204 80 213 9.0 20.0 0.00 0.00 0.00 46 1004.4
20260504201204 80 190 6.0 18.0 0.00 0.00 0.00 48 1004.4
20260504200703 80 193 5.0 14.0 0.00 0.00 0.00 48 1004.3
20260504195704 79 240 7.0 15.0 0.00 0.00 0.00 47 1004.5
20260504195204 79 220 9.0 26.0 0.00 0.00 0.00 47 1004.5
20260504194704 79 243 6.0 17.0 0.00 0.00 0.00 48 1004.6
20260504194204 79 241 5.0 15.0 0.00 0.00 0.00 47 1004.8
20260504193703 79 175 11.0 22.0 0.00 0.00 0.00 47 1004.8
20260504193203 80 213 9.0 18.0 0.00 0.00 0.00 47 1004.8
20260504192704 79 214 3.0 9.0 0.00 0.00 0.00 49 1004.8
20260504192204 79 255 6.0 14.0 0.00 0.00 0.00 49 1004.8
20260504191703 79 173 7.0 16.0 0.00 0.00 0.00 50 1004.9
20260504191204 78 202 12.0 21.0 0.00 0.00 0.00 48 1005.0
20260504190704 78 190 9.0 20.0 0.00 0.00 0.00 49 1005.1
20260504185703 78 254 11.0 24.0 0.00 0.00 0.00 49 1005.1
20260504185204 78 183 8.0 20.0 0.00 0.00 0.00 50 1005.1
20260504184703 78 222 6.0 23.0 0.00 0.00 0.00 51 1005.2
20260504184204 79 212 8.0 23.0 0.00 0.00 0.00 50 1005.2
20260504183204 79 212 5.0 10.0 0.00 0.00 0.00 51 1005.2
20260504182703 79 199 9.0 25.0 0.00 0.00 0.00 50 1005.4
20260504182203 78 219 6.0 17.0 0.00 0.00 0.00 51 1005.4
20260504181704 78 185 9.0 24.0 0.00 0.00 0.00 50 1005.4
20260504181204 78 193 9.0 32.0 0.00 0.00 0.00 49 1005.4
20260504180704 78 205 7.0 14.0 0.00 0.00 0.00 51 1005.4
20260504180203 78 222 5.0 12.0 0.00 0.00 0.00 50 1005.4
20260504175704 78 190 7.0 14.0 0.00 0.00 0.00 49 1005.5
20260504174703 78 196 7.0 15.0 0.00 0.00 0.00 50 1005.5
20260504174204 77 212 6.0 16.0 0.00 0.00 0.00 51 1005.6
20260504173704 77 210 9.0 20.0 0.00 0.00 0.00 50 1005.6
20260504172704 77 186 7.0 21.0 0.00 0.00 0.00 50 1005.6
20260504172204 77 152 7.0 18.0 0.00 0.00 0.00 50 1005.6
20260504171703 77 210 6.0 16.0 0.00 0.00 0.00 51 1005.6
20260504171204 77 205 5.0 20.0 0.00 0.00 0.00 51 1005.7
20260504170703 77 213 7.0 17.0 0.00 0.00 0.00 51 1005.8
20260504170204 77 186 9.0 15.0 0.00 0.00 0.00 50 1005.8
20260504160204 74 255 7.0 20.0 0.00 0.00 0.00 52 1006.5
20260504150703 71 221 9.0 17.0 0.00 0.00 0.00 54 1006.9
20260504150204 71 225 10.0 20.0 0.00 0.00 0.00 55 1006.9
20260504141203 68 234 4.0 20.0 0.00 0.00 0.00 60 1007.5
20260504140704 68 248 4.0 9.0 0.00 0.00 0.00 61 1007.6
20260504130704 64 170 3.0 10.0 0.00 0.00 0.00 65 1008.1
20260504130204 64 193 5.0 9.0 0.00 0.00 0.00 65 1008.2
20260504120203 61 200 3.0 8.0 0.00 0.00 0.00 67 1008.2
20260504110703 61 194 4.0 8.0 0.00 0.00 0.00 66 1008.1
20260504110203 61 203 3.0 12.0 0.00 0.00 0.00 66 1008.2
20260504100203 63 216 3.0 10.0 0.00 0.00 0.00 64 1008.5